[Date Prev][Date Next][Thread Prev][Thread Next] - [Date Index][Thread Index][Author Index]

2 Line ISS Keps 1-13



ISS
1 25544U 98067A   04013.18132723  .00015590  00000-0  15591-3 0    80
2 25544  51.6292  39.6134 0007891  44.5269  83.1818 15.65759180293840


----
Via the sarex mailing list at AMSAT.ORG courtesy of AMSAT-NA.
To unsubscribe, send "unsubscribe sarex" to Majordomo@amsat.org



AMSAT Top AMSAT Home